Regional Weather Roundup
Issued by NWS Mt. Holly, NJ

Home | Current Version | Previous Version | Text Only | Print | Product List | Glossary On
Versions: 1 2 3 4 5 6 7 8 9 10 11 12 13 14 15 16 17 18 19 20 21 22 23 24 25 26 27 28 29 30 31 32 33 34 35
000
ASUS41 KPHI 231410
RWRPHI

REGIONAL WEATHER ROUNDUP
NATIONAL WEATHER SERVICE MOUNT HOLLY NJ
1000 AM EDT THU OCT 23 2014

NOTE:  "FAIR" INDICATES FEW OR NO CLOUDS BELOW 12,000 FEET WITH NO
SIGNIFICANT WEATHER AND/OR OBSTRUCTIONS TO VISIBILITY.

 * = STATION DOES NOT REPORT PRECIPITATION (E.G. RAIN, SNOW, ETC.)
        OR FOG.

NJZ015>026-231500-
SOUTHERN NEW JERSEY

CITY           SKY/WX    TMP DP  RH WIND       PRES   REMARKS
POMONA         CLOUDY    50  48  93 NW20      29.73R
RIO GRANDE*    CLOUDY    54  45  71 NW13G22   29.77R
MILLVILLE      CLOUDY    51  47  86 NW15      29.77S
WRIGHTSTOWN    LGT RAIN  50  50 100 NW17G23   29.71F
MOUNT HOLLY    LGT RAIN  50  47  89 NW9G22    29.75S
TRENTON        RAIN      50  47  89 NW10      29.75R FOG

$$
NJZ001>014-231500-
NORTHERN NEW JERSEY

CITY           SKY/WX    TMP DP  RH WIND       PRES   REMARKS
SUSSEX         CLOUDY    52  46  80 VRB6      29.76S
ANDOVER*         N/A     49  45  86 N10       29.77R
MORRISTOWN     CLOUDY    54  50  87 N8G17     29.74S
NEWARK         NOT AVBL
TETERBORO      CLOUDY    52  45  77 N9        29.71S
CALDWELL       CLOUDY    52  46  80 VRB5      29.73S
SOMERVILLE     CLOUDY    52  46  80 N12G18    29.74R
ALLAIRE*       CLOUDY    52  45  76 NW13G20   29.70S
TOMS RIVER*    CLOUDY    50  48  93 N5        29.72S

$$
PAZ043-044-047-054-055-060>062-066>071-231500-
EASTERN PENNSYLVANIA

CITY           SKY/WX    TMP DP  RH WIND       PRES   REMARKS
PHILADELPHIA   CLOUDY    52  46  80 NW18G28   29.78S
NORTH PHILA    LGT RAIN  52  45  77 NW14G28   29.78S
BLUE BELL      CLOUDY    52  45  76 NW6G20    29.78S
DOYLESTOWN     LGT RAIN  48  46  93 NW7G17    29.77R
QUAKERTOWN*    CLOUDY    48  43  81 N15G21    29.81R
POTTSTOWN      CLOUDY    51  44  77 NW13      29.82R
LANCASTER      CLOUDY    53  42  66 NW13G24   29.85S
COATESVILLE    CLOUDY    50  45  81 NW14G24   29.82S
READING        CLOUDY    52  43  71 NW10      29.83S
ALLENTOWN      CLOUDY    51  41  68 NW14G23   29.81R
MOUNT POCONO   LGT RAIN  43  40  89 NW15G29   29.80R
HAZLETON       DRIZZLE   43  43 100 NW12      29.89R
WILKES BARRE   LGT RAIN  46  41  82 N8        29.88R

$$
DEZALL-MDZ008-012-015-019-020-231500-
DELAWARE AND EASTERN MARYLAND

CITY           SKY/WX    TMP DP  RH WIND       PRES   REMARKS
WILMINGTON     CLOUDY    52  47  83 NW20      29.81R
DOVER          PTSUNNY   52  48  87 NW21G26   29.78S
GEORGETOWN     LGT RAIN  52  47  83 NW8       29.81R
EASTON         CLOUDY    57  48  72 NW12G18   29.87S
PATUXENT       PTSUNNY   55  43  63 NW20G26   29.87S
OCEAN CITY     CLOUDY    54  46  74 NW14G22   29.79R
WALLOPS ISLAND CLOUDY    56  46  69 NW16G26   29.83R
CAMBRIDGE      CLOUDY    55  45  67 NW13G22   29.84S VSB<1/4
SALISBURY      CLOUDY    57  45  64 NW9G20    29.82R

$$
PAZ001-021-NYZ056-072-MDZ011-DCZ001-231500-
OTHER NEARBY LOCATIONS

CITY           SKY/WX    TMP DP  RH WIND       PRES   REMARKS
HARRISBURG     CLOUDY    54  43  66 NW12G24   29.88R
STATE COLLEGE  CLOUDY    48  41  76 N9G18     29.99S
WILLIAMSPORT   CLOUDY    53  42  66 NW13G23   29.92S
BINGHAMTON     CLOUDY    42  39  89 N18G24    29.90S
NEW YORK CITY  CLOUDY    50  47  89 N9        29.73S
BALTIMORE      PTSUNNY   56  44  64 NW13G23   29.86S
WASHINGTON DC  MOSUNNY   58  42  55 NW12G22   29.90F

$$



USA.gov is the U.S. government's official web portal to all federal, state and local government web resources and services.